Regional Weather Roundup
Issued by NWS Midland/Odessa, TX

Skip options and go directly to product.
Home | Oldest Version | Previous Version | Current Version | All | Text Only | Save Text | Print | Product List | Glossary Off

Skip product version selection by date and time.   

576
ASUS44 KMAF 011110
RWRMAF
MIDLAND AREA WEATHER ROUNDUP
NATIONAL WEATHER SERVICE MIDLAND TX
500 AM CST SUN FEB 01 2015

...IN SOUTHWEST TEXAS AND SOUTHEAST NEW MEXICO...

CITY           SKY/WX    TMP DP  RH WIND       PRES   REMARKS
ALPINE         CLEAR     42  38  86 SW9       30.02S WCI  36
ANDREWS        FOG       45  45 100 W9        29.90R VSB 3/4
ARTESIA        FOG       39  39 100 S5        29.92R VSB<1/4 WCI  36
BIG SPRING     CLOUDY    49  47  93 SW9       29.91R
CARLSBAD       FOG       41  40  96 CALM      29.90S VSB 1/4
DRYDEN           N/A     46  44  93 S3        29.89F
FORT STOCKTON  CLEAR     47  42  83 SW14      29.92R
GUAD PASS      FOG       39  39 100 SW16      29.95S VSB 1/2 WCI  30
HOBBS          FOG       39  39 100 SW8       29.90S VSB 1/4 WCI  34
MARFA          CLEAR     30  30 100 N3        29.99S
MIDLAND AIRPK  FOG       47  47 100 W3        29.89S VSB 1
MIDLAND INTL   FOG       46  45  96 SW10      29.89R VSB 1/4
ODESSA         FOG       45  43  93 SW12      29.90R VSB 1/4 WCI  39
PECOS          CLEAR     35  35  97 CALM      29.91S FOG
PRESIDIO       FAIR      47  43  85 N8        29.95S
SEMINOLE       FOG       43  43 100 W9        29.90R VSB 1/2 WCI  37
SNYDER         CLOUDY   N/A N/A N/A SW7       29.88S HAZE
WINK           FOG       41  38  89 E3        29.89S VSB 3/4
$$
...OTHER STATIONS IN TEXAS...

CITY           SKY/WX    TMP DP  RH WIND       PRES   REMARKS
ABILENE        PTCLDY    53  50  89 SW6       29.86S
AMARILLO       MOCLDY    37  35  92 N10       29.92R WCI  30
AUSTIN         CLOUDY    61  60  97 S10       29.88F
BROWNSVILLE    MOCLDY    65  61  87 S14       29.87F
CORPUS CHRISTI PTCLDY    58  57  97 S3        29.89S FOG
DALLAS FTW     CLOUDY    55  54  96 CALM      29.83S
DEL RIO        CLOUDY    55  54  96 NW5       29.88R FOG
EL PASO        CLOUDY    45  42  89 E5        29.95R
HOUSTON INT    MOCLDY    63  62  97 S6        29.92F FOG
LUBBOCK        CLOUDY    43  42  97 NW9       29.89R WCI  38
SAN ANGELO     CLEAR     49  47  93 CALM      29.88R
SAN ANTONIO    CLOUDY    61  59  93 SE5       29.89F
WACO           CLOUDY    60  58  92 S8        29.86F
WICHITA FALLS  NOT AVBL
$$
...OTHER LOCATIONS IN NEW MEXICO...

CITY           SKY/WX    TMP DP  RH WIND       PRES   REMARKS
ALAMAGORDO     PTCLDY    43  43 100 NE5       29.96R
ALBUQUERQUE    PTCLDY    37  31  78 N8        30.01R WCI  31
CANNON AFB     PTCLDY    36 N/A N/A CALM      29.90R FOG
CLOVIS         CLOUDY    36  34  93 N12       29.92R WCI  27
HOLLOMAN AFB   CLEAR     41  41 100 CALM      29.94R
ROSWELL        FOG       40  39  97 N7        29.91R VSB 1/4 WCI  35
RUIDOSO        CLOUDY    39  32  75 NW18G26   29.96S WCI  30
SANTA FE       FOG       22  20  92 NE5       29.97R VSB 1/2 WCI  16
TRUTH OR CONSE MOCLDY    40  39  97 NE5       29.97R WCI  37
TUCUMCARI      MOCLDY    31  30  96 SW7       29.92R WCI  24
$$

USA.gov is the U.S. government's official web portal to all federal, state and local government web resources and services.